Location: Neu-Ulm
(48.3873°N, 10.0192°E)
Time: 01:12:48
(UTC+01:00)

ISS - Visible Passes

Search period start: 20 November 2017 00:00
Search period end: 30 November 2017 00:00
Orbit: 402 x 407 km, 51.6° (Epoch: 20 November)

Date Brightness Start Highest point End Pass type
(mag) Time Alt. Az. Time Alt. Az. Time Alt. Az.
27 Nov -1.0 19:07:12 10° SSW 19:07:46 14° SSW 19:07:46 14° SSW visible
28 Nov -2.1 18:15:26 10° SSW 18:17:45 21° SSE 18:17:45 21° SSE visible
29 Nov -1.5 17:24:16 10° SSE 17:25:50 13° SE 17:27:26 10° ESE visible
29 Nov -2.0 18:58:33 10° SW 19:00:18 29° SW 19:00:18 29° SW visible
